Starlink 32800

operational
NORAD ID: 62743 Int'l Des: 2025-014 Owner: SPXS Country: US Constellation: starlink
LEOCIRCULAR

关于 Starlink 32800

正在加载描述...

实时位置

正在加载3D地球...

即将过境

高度历史

Altitude vs Time

uPlot chart will show altitude changes over time

两行轨道根数

1 62743U 25014J 25302.98965871 .00049218 00000-0 17848-2 0 9993
2 62743 43.0033 179.8589 0001929 270.1478 89.9153 15.27604100 43181
Epoch: Oct 29, 2025 • Age: 42 hours

当前状态

高度 483.2 km
速度 7.63 km/s
星下点 -5.73°S, 55.39°E
发射日期 Jan 21, 2025
运行时间 0.7 years
类型 internet

技术详情

分类 Payload
质量 730.00 kg
干质量 700.00 kg
总质量 730.00 kg
长度 0.30 m
直径 4.10 m
跨度 29.00 m
形状 Box + pan
制造商 SPXS
平台类型 Starlink V2M
阶段状态 In Orbit
所有者/国家 SPXS/US

大型星座

Loading constellations...